Location: Flensburg
(54.6357°N, 9.5142°E)
Time: 07:03:45
(UTC+01:00)

ISS - Pass Details

Date: 07 January 2018
Orbit: 402 x 407 km, 51.6° (Epoch: 18 January)

Event Time Altitude Azimuth Distance (km) Brightness Sun altitude
Exits shadow 05:56:17 42° 139° (SE) 595 -2.7 -22.6°
Drops below altitude 10° 05:58:50 10° 103° (ESE) 1,470 0.1 -22.2°
Sets 06:00:57 0° 98° (E) 2,332 1.6 -21.9°
